EW3511 Weather Reports


time (UTC)temp
C
wind
direction
speed
KPH
gust
KPH
rain 1hr
cm
rain 24hr
cm
rain mn
cm
humidity
%
barometer
mb
20260902191539 19 0.0 1.6 0.00 0.00 0.00 66 1020.7
20260902190540 18 67 0.0 1.6 0.00 0.00 0.00 67 1020.7
20260902185540 18 0.0 0.0 0.00 0.00 0.00 74 1020.6
20260902184541 18 0.0 0.0 0.00 0.00 0.00 78 1020.4
20260902183542 18 0.0 0.0 0.00 0.00 0.00 76 1020.2
20260902182541 18 53 0.0 1.6 0.00 0.00 0.00 76 1020.2
20260902181542 19 69 0.0 1.6 0.00 0.00 0.00 75 1020.2
20260902180543 20 0.0 1.6 0.00 0.00 0.00 74 1019.9
20260902175542 21 0.0 0.0 0.00 0.00 0.00 73 1019.8
20260902174543 21 0.0 0.0 0.00 0.00 0.00 70 1019.7
20260902173543 22 99 0.0 1.6 0.00 0.00 0.00 66 1019.6
20260902172544 22 125 0.0 3.2 0.00 0.00 0.00 61 1019.6
20260902171545 23 0.0 0.0 0.00 0.00 0.00 61 1019.5
20260902170545 23 0.0 0.0 0.00 0.00 0.00 60 1019.6
20260902165545 23 63 0.0 1.6 0.00 0.00 0.00 59 1019.6
20260902164545 23 55 0.0 1.6 0.00 0.00 0.00 57 1019.5
20260902163606 23 60 0.0 1.6 0.00 0.00 0.00 54 1019.5
20260902162547 24 70 0.0 1.6 0.00 0.00 0.00 54 1019.3
20260902161546 24 49 0.0 1.6 0.00 0.00 0.00 51 1019.4
20260902160627 24 51 0.0 4.8 0.00 0.00 0.00 50 1019.3
20260902155547 25 58 1.6 4.8 0.00 0.00 0.00 50 1019.4
20260902154548 25 41 1.6 4.8 0.00 0.00 0.00 49 1019.5
20260902153550 25 170 1.6 8.0 0.00 0.00 0.00 46 1019.4
20260902152549 25 60 1.6 8.0 0.00 0.00 0.00 45 1019.4
20260902151549 26 236 3.2 8.0 0.00 0.00 0.00 43 1019.6
20260902150549 26 112 3.2 8.0 0.00 0.00 0.00 43 1019.6
20260902145551 26 218 3.2 9.7 0.00 0.00 0.00 42 1019.6
20260902144550 26 346 4.8 11.3 0.00 0.00 0.00 44 1019.6
20260902143611 26 142 3.2 8.0 0.00 0.00 0.00 45 1019.7
20260902142552 26 84 1.6 9.7 0.00 0.00 0.00 46 1019.8
20260902141614 26 118 3.2 8.0 0.00 0.00 0.00 50 1019.7
20260902140552 26 147 3.2 12.9 0.00 0.00 0.00 49 1019.8
20260902135553 27 106 1.6 4.8 0.00 0.00 0.00 47 1019.9
20260902134553 27 187 3.2 9.7 0.00 0.00 0.00 48 1019.8
20260902133607 26 106 1.6 8.0 0.00 0.00 0.00 52 1019.8
20260902132554 25 76 1.6 9.7 0.00 0.00 0.00 53 1020.0
20260902131558 25 37 3.2 9.7 0.00 0.00 0.00 55 1020.2
20260902130555 25 117 1.6 4.8 0.00 0.00 0.00 56 1020.1
20260902125556 24 95 3.2 9.7 0.00 0.00 0.00 58 1020.2
20260902124556 24 66 3.2 9.7 0.00 0.00 0.00 60 1020.4
20260902123616 24 48 1.6 8.0 0.00 0.00 0.00 60 1020.5
20260902122557 24 75 3.2 8.0 0.00 0.00 0.00 59 1020.5
20260902121557 23 60 3.2 4.8 0.00 0.00 0.00 59 1020.6
20260902120559 23 54 1.6 8.0 0.00 0.00 0.00 60 1020.6
20260902115558 24 45 1.6 4.8 0.00 0.00 0.00 58 1020.6
20260902114558 23 140 1.6 8.0 0.00 0.00 0.00 59 1020.7
20260902113559 23 42 1.6 3.2 0.00 0.00 0.00 60 1020.7
20260902110557 23 47 1.6 4.8 0.00 0.00 0.00 63 1020.9
20260902105557 22 56 1.6 4.8 0.00 0.00 0.00 65 1021.0
20260902104558 22 70 1.6 3.2 0.00 0.00 0.00 66 1021.2
20260902103557 22 69 1.6 3.2 0.00 0.00 0.00 65 1021.3
20260902102559 22 54 1.6 3.2 0.00 0.00 0.00 65 1021.2
20260902101559 22 71 1.6 4.8 0.00 0.00 0.00 66 1021.4
20260902100559 22 127 0.0 3.2 0.00 0.00 0.00 63 1021.4
20260902095620 22 120 1.6 4.8 0.00 0.00 0.00 64 1021.5
20260902094615 22 93 3.2 4.8 0.00 0.00 0.00 66 1021.5
20260902093600 23 112 3.2 8.0 0.00 0.00 0.00 63 1021.5
20260902092600 22 102 1.6 4.8 0.00 0.00 0.00 66 1021.4
20260902091622 22 120 3.2 8.0 0.00 0.00 0.00 67 1021.6
20260902090601 21 99 3.2 4.8 0.00 0.00 0.00 68 1021.5
20260902085602 21 78 1.6 8.0 0.00 0.00 0.00 69 1021.7
20260902084602 21 125 3.2 4.8 0.00 0.00 0.00 70 1021.7
20260902083604 21 110 3.2 4.8 0.00 0.00 0.00 70 1021.6
20260902082605 22 101 1.6 3.2 0.00 0.00 0.00 68 1021.6
20260902081603 21 58 1.6 3.2 0.00 0.00 0.00 69 1021.6
20260902080604 20 84 1.6 4.8 0.00 0.00 0.00 71 1021.6
20260902075604 21 29 1.6 3.2 0.00 0.00 0.00 71 1021.6
20260902074532 20 68 1.6 3.2 0.00 0.00 0.00 71 1021.5
20260902073534 20 90 1.6 3.2 0.00 0.00 0.00 71 1021.4
20260902072533 20 94 1.6 3.2 0.00 0.00 0.00 72 1021.6
20260902071535 19 105 0.0 3.2 0.00 0.00 0.00 72 1021.6
20260902070534 18 109 1.6 3.2 0.00 0.00 0.00 74 1021.6
20260902065535 18 98 1.6 1.6 0.00 0.00 0.00 77 1021.5
20260902064615 18 91 0.0 1.6 0.00 0.00 0.00 77 1021.3
20260902063535 17 91 0.0 1.6 0.00 0.00 0.00 79 1021.4
20260902062536 17 90 0.0 1.6 0.00 0.00 0.00 78 1021.5
20260902060537 16 88 0.0 1.6 0.00 0.00 0.00 85 1021.3
20260902055637 14 0.0 0.0 0.00 0.00 0.00 92 1021.4
20260902054538 12 0.0 0.0 0.00 0.00 0.00 99 1021.3
20260902053539 12 0.0 0.0 0.00 0.00 0.00 99 1021.3
20260902052542 11 0.0 0.0 0.00 0.00 0.00 99 1021.3
20260902051539 11 0.0 0.0 0.00 0.00 0.00 99 1021.2
20260902050540 10 0.0 0.0 0.00 0.00 0.00 99 1021.2
20260902045600 10 0.0 0.0 0.00 0.00 0.00 99 1021.0
20260902044540 10 0.0 0.0 0.00 0.00 0.00 99 1021.0
20260902043540 10 0.0 0.0 0.00 0.00 0.00 99 1021.0
20260902042602 10 0.0 0.0 0.00 0.00 0.00 99 1020.9
20260902041541 10 0.0 0.0 0.00 0.00 0.00 99 1020.9
20260902040542 10 0.0 0.0 0.00 0.00 0.00 99 1021.0
20260902035542 10 0.0 0.0 0.00 0.00 0.00 99 1021.0
20260902034542 10 0.0 0.0 0.00 0.00 0.00 99 1021.1
20260902033543 10 0.0 0.0 0.00 0.00 0.00 99 1021.0
20260902032543 10 0.0 0.0 0.00 0.00 0.00 99 1021.0
20260902031604 10 0.0 0.0 0.00 0.00 0.00 99 1021.0
20260902030544 11 0.0 0.0 0.00 0.00 0.00 99 1021.0
20260902025625 11 0.0 0.0 0.00 0.00 0.00 99 1021.2
20260902024545 11 0.0 0.0 0.00 0.00 0.00 99 1021.3
20260902023546 11 0.0 0.0 0.00 0.00 0.00 99 1021.4
20260902022547 11 0.0 0.0 0.00 0.00 0.00 99 1021.3
20260902021548 11 0.0 0.0 0.00 0.00 0.00 99 1021.2
20260902020607 11 0.0 0.0 0.00 0.00 0.00 99 1021.2
20260902015548 11 0.0 0.0 0.00 0.00 0.00 99 1021.3
20260902014547 11 0.0 0.0 0.00 0.00 0.00 99 1021.2
20260902013548 12 0.0 0.0 0.00 0.00 0.00 98 1021.4
20260902012551 12 0.0 0.0 0.00 0.00 0.00 98 1021.3
20260902011549 12 0.0 0.0 0.00 0.00 0.00 99 1021.5
20260902010549 12 60 0.0 1.6 0.00 0.00 0.00 99 1021.5
20260902005630 12 0.0 0.0 0.00 0.00 0.00 99 1021.5
20260902004550 12 0.0 0.0 0.00 0.00 0.00 99 1021.6
20260902003551 12 0.0 0.0 0.00 0.00 0.00 99 1021.5
20260902002552 12 0.0 0.0 0.00 0.00 0.00 99 1021.4
20260902001551 12 0.0 0.0 0.00 0.00 0.00 98 1021.5
20260902000552 12 0.0 0.0 0.00 0.00 0.00 98 1021.7
20260901235552 12 0.0 0.0 0.00 0.00 0.00 99 1021.7
20260901234553 12 0.0 0.0 0.00 0.00 0.00 99 1021.7
20260901233553 12 0.0 0.0 0.00 0.00 0.00 98 1021.8
20260901232554 12 0.0 0.0 0.00 0.00 0.00 98 1021.7
20260901231554 12 0.0 0.0 0.00 0.00 0.00 97 1021.7
20260901230554 12 0.0 0.0 0.00 0.00 0.00 97 1021.6
20260901225614 13 0.0 0.0 0.00 0.00 0.00 97 1021.6
20260901224556 13 0.0 0.0 0.00 0.00 0.00 97 1021.7
20260901223556 13 0.0 0.0 0.00 0.00 0.00 96 1021.6
20260901222616 13 0.0 0.0 0.00 0.00 0.00 95 1021.8
20260901221556 13 0.0 0.0 0.00 0.00 0.00 95 1021.7
20260901220557 14 0.0 0.0 0.00 0.00 0.00 93 1021.9
20260901215558 14 0.0 0.0 0.00 0.00 0.00 93 1021.8
20260901214558 14 0.0 0.0 0.00 0.00 0.00 92 1021.7
20260901213558 14 0.0 0.0 0.00 0.00 0.00 92 1021.8
20260901212558 15 114 0.0 1.6 0.00 0.00 0.00 92 1021.6
20260901211559 14 0.0 0.0 0.00 0.00 0.00 92 1021.6
20260901210619 14 0.0 0.0 0.00 0.00 0.00 92 1021.7
20260901205600 15 0.0 0.0 0.00 0.00 0.00 91 1021.6
20260901204641 15 0.0 0.0 0.00 0.00 0.00 90 1021.7
20260901203533 15 0.0 0.0 0.00 0.00 0.00 90 1021.5
20260901202533 15 0.0 0.0 0.00 0.00 0.00 89 1021.4
20260901201534 15 0.0 0.0 0.00 0.00 0.00 88 1021.3
20260901200534 15 0.0 0.0 0.00 0.00 0.00 88 1021.4
20260901195554 16 0.0 0.0 0.00 0.00 0.00 87 1021.4
20260901194534 16 0.0 0.0 0.00 0.00 0.00 87 1021.3
20260901193536 16 0.0 0.0 0.00 0.00 0.00 85 1021.1
20260901192536 16 0.0 0.0 0.00 0.00 0.00 85 1021.1